When you browse on this site, cookies collect data to enhance your experience and personalize the content and advertising you see.
Visit our Privacy Policy to learn more. By continuing to use the site, you agree to this use of cookies and data.
  • în România
  • Lista ţărilor
  • Pe 7 zile
  • Temperatura apei
  • Meteo pe hartă
  • Widget-uri
  • user-avatar
    Intrare

    Meteo pe oră la Saint-Quentin

    Astăzi, 21 August, Miercuri

    Timp Temperatura Precipitaţii Vânt Presiune Umiditate
    00:00 +12°C° 0 mm 1 m/s 761 mmHg 89%
    01:00 +11°C° 0 mm 1 m/s 761 mmHg 89%
    02:00 +10°C° 0 mm 0 m/s 761 mmHg 89%
    03:00 +10°C° 0 mm 0 m/s 761 mmHg 89%
    04:00 +10°C° 0 mm 0 m/s 761 mmHg 87%
    05:00 +11°C° 0 mm 0 m/s 761 mmHg 85%
    06:00 +11°C° 0 mm 0 m/s 761 mmHg 84%
    07:00 +13°C° 0 mm 0 m/s 762 mmHg 75%
    08:00 +15°C° 0 mm 0 m/s 762 mmHg 66%
    09:00 +17°C° 0 mm 0 m/s 762 mmHg 58%
    10:00 +19°C° 0 mm 0 m/s 762 mmHg 52%
    11:00 +20°C° 0 mm 0 m/s 761 mmHg 46%
    12:00 +21°C° 0 mm 0 m/s 761 mmHg 40%
    13:00 +21°C° 0 mm 0 m/s 761 mmHg 39%
    14:00 +22°C° 0 mm 0 m/s 760 mmHg 38%
    15:00 +22°C° 0 mm 0 m/s 760 mmHg 37%
    16:00 +21°C° 0 mm 0 m/s 760 mmHg 41%
    17:00 +20°C° 0 mm 0 m/s 760 mmHg 46%
    18:00 +19°C° 0 mm 0 m/s 760 mmHg 51%
    19:00 +17°C° 0 mm 0 m/s 760 mmHg 53%
    20:00 +16°C° 0 mm 0 m/s 760 mmHg 55%
    21:00 +14°C° 0 mm 0 m/s 760 mmHg 58%
    22:00 +14°C° 0 mm 0 m/s 760 mmHg 60%
    23:00 +14°C° 0 mm 1 m/s 760 mmHg 62%

    Mâine, 22 August, Joi

    Timp Temperatura Precipitaţii Vânt Presiune Umiditate
    00:00 +14°C° 0 mm 1 m/s 760 mmHg 64%
    01:00 +13°C° 0 mm 1 m/s 760 mmHg 65%
    02:00 +13°C° 0 mm 1 m/s 759 mmHg 67%
    03:00 +12°C° 0 mm 0 m/s 759 mmHg 69%
    04:00 +12°C° 0 mm 0 m/s 759 mmHg 69%
    05:00 +13°C° 0 mm 0 m/s 760 mmHg 70%
    06:00 +13°C° 0 mm 0 m/s 760 mmHg 70%
    07:00 +15°C° 0 mm 0 m/s 760 mmHg 63%
    08:00 +20°C° 0 mm 1 m/s 760 mmHg 57%
    09:00 +22°C° 0 mm 1 m/s 760 mmHg 50%
    10:00 +23°C° 0 mm 1 m/s 760 mmHg 47%
    11:00 +24°C° 0 mm 1 m/s 760 mmHg 44%
    12:00 +25°C° 0 mm 1 m/s 760 mmHg 41%
    13:00 +25°C° 0 mm 1 m/s 759 mmHg 40%
    14:00 +25°C° 0 mm 1 m/s 759 mmHg 40%
    15:00 +25°C° 0 mm 2 m/s 759 mmHg 39%
    16:00 +24°C° 0 mm 1 m/s 759 mmHg 45%
    17:00 +23°C° 0 mm 1 m/s 759 mmHg 50%
    18:00 +22°C° 0 mm 1 m/s 759 mmHg 56%
    19:00 +19°C° 0 mm 2 m/s 759 mmHg 60%
    20:00 +18°C° 0 mm 2 m/s 760 mmHg 63%
    21:00 +16°C° 0 mm 2 m/s 760 mmHg 67%
    22:00 +16°C° 0 mm 2 m/s 760 mmHg 69%
    23:00 +15°C° 0 mm 2 m/s 760 mmHg 72%

    Poimâine, 23 August, Vineri

    Timp Temperatura Precipitaţii Vânt Presiune Umiditate
    00:00 +14°C° 0 mm 2 m/s 760 mmHg 74%
    01:00 +14°C° 0 mm 2 m/s 759 mmHg 76%
    02:00 +14°C° 0 mm 2 m/s 759 mmHg 78%
    03:00 +14°C° 0 mm 2 m/s 759 mmHg 79%
    04:00 +14°C° 0 mm 2 m/s 759 mmHg 79%
    05:00 +14°C° 0 mm 2 m/s 759 mmHg 79%
    06:00 +15°C° 0 mm 2 m/s 759 mmHg 78%
    07:00 +17°C° 0 mm 2 m/s 759 mmHg 71%
    08:00 +19°C° 0 mm 2 m/s 759 mmHg 64%
    09:00 +23°C° 0 mm 2 m/s 759 mmHg 57%
    10:00 +24°C° 0 mm 2 m/s 759 mmHg 53%
    11:00 +25°C° 0 mm 2 m/s 759 mmHg 50%
    12:00 +26°C° 0 mm 2 m/s 758 mmHg 47%
    13:00 +27°C° 0 mm 2 m/s 758 mmHg 46%
    14:00 +27°C° 0 mm 2 m/s 758 mmHg 44%
    15:00 +28°C° 0 mm 2 m/s 758 mmHg 43%
    16:00 +26°C° 0 mm 2 m/s 757 mmHg 49%
    17:00 +25°C° 0 mm 2 m/s 757 mmHg 56%
    18:00 +24°C° 0 mm 2 m/s 757 mmHg 62%
    19:00 +21°C° 0 mm 3 m/s 757 mmHg 65%
    20:00 +20°C° 0 mm 3 m/s 757 mmHg 68%
    21:00 +19°C° 0 mm 3 m/s 757 mmHg 71%
    22:00 +18°C° 0 mm 3 m/s 757 mmHg 73%
    23:00 +17°C° 0 mm 3 m/s 757 mmHg 75%

    24 August, Sâmbătă

    Timp Temperatura Precipitaţii Vânt Presiune Umiditate
    00:00 +17°C° 0 mm 2 m/s 756 mmHg 77%
    01:00 +16°C° 0 mm 2 m/s 756 mmHg 77%
    02:00 +16°C° 0 mm 2 m/s 756 mmHg 77%
    03:00 +16°C° 0 mm 2 m/s 756 mmHg 77%
    04:00 +16°C° 0 mm 2 m/s 756 mmHg 76%
    05:00 +16°C° 0 mm 2 m/s 755 mmHg 74%
    06:00 +17°C° 0 mm 2 m/s 755 mmHg 73%
    07:00 +19°C° 0 mm 2 m/s 755 mmHg 66%
    08:00 +21°C° 0 mm 2 m/s 756 mmHg 60%
    09:00 +25°C° 0 mm 3 m/s 756 mmHg 53%
    10:00 +26°C° 0 mm 3 m/s 755 mmHg 49%
    11:00 +27°C° 0 mm 3 m/s 755 mmHg 46%
    12:00 +29°C° 0 mm 3 m/s 755 mmHg 42%
    13:00 +29°C° 0 mm 3 m/s 754 mmHg 41%
    14:00 +29°C° 0 mm 2 m/s 754 mmHg 40%
    15:00 +30°C° 0 mm 2 m/s 754 mmHg 38%
    16:00 +28°C° 0 mm 2 m/s 754 mmHg 44%
    17:00 +27°C° 0 mm 2 m/s 753 mmHg 49%
    18:00 +26°C° 0 mm 1 m/s 753 mmHg 54%
    19:00 +24°C° 0 mm 1 m/s 753 mmHg 56%
    20:00 +23°C° 0 mm 1 m/s 753 mmHg 58%
    21:00 +22°C° 0 mm 1 m/s 754 mmHg 60%
    22:00 +21°C° 0 mm 1 m/s 753 mmHg 62%
    23:00 +20°C° 0 mm 1 m/s 753 mmHg 64%

    25 August, Duminică

    Timp Temperatura Precipitaţii Vânt Presiune Umiditate
    00:00 +20°C° 0 mm 1 m/s 753 mmHg 67%
    01:00 +19°C° 0 mm 1 m/s 753 mmHg 69%
    02:00 +19°C° 0 mm 1 m/s 753 mmHg 71%
    03:00 +19°C° 0 mm 1 m/s 753 mmHg 73%
    04:00 +19°C° 0 mm 1 m/s 753 mmHg 75%
    05:00 +18°C° 0 mm 2 m/s 753 mmHg 76%
    06:00 +18°C° 0 mm 2 m/s 753 mmHg 77%
    07:00 +20°C° 0 mm 2 m/s 753 mmHg 71%
    08:00 +24°C° 0 mm 2 m/s 753 mmHg 64%
    09:00 +26°C° 0 mm 2 m/s 754 mmHg 57%
    10:00 +28°C° 0 mm 2 m/s 753 mmHg 51%
    11:00 +29°C° 0 mm 2 m/s 753 mmHg 44%
    12:00 +31°C° 0 mm 2 m/s 753 mmHg 37%
    13:00 +31°C° 0 mm 1 m/s 753 mmHg 35%
    14:00 +32°C° 0 mm 1 m/s 753 mmHg 33%
    15:00 +32°C° 0 mm 1 m/s 753 mmHg 31%
    16:00 +31°C° 0 mm 1 m/s 753 mmHg 37%
    17:00 +29°C° 0 mm 1 m/s 753 mmHg 42%
    18:00 +28°C° 0 mm 1 m/s 753 mmHg 47%
    19:00 +26°C° 0 mm 1 m/s 753 mmHg 50%
    20:00 +25°C° 0 mm 2 m/s 753 mmHg 52%
    21:00 +24°C° 0 mm 2 m/s 754 mmHg 55%
    22:00 +23°C° 0.1 mm 2 m/s 754 mmHg 59%
    23:00 +21°C° 0.1 mm 2 m/s 754 mmHg 62%

    26 August, Luni

    Timp Temperatura Precipitaţii Vânt Presiune Umiditate
    00:00 +21°C° 0.1 mm 1 m/s 754 mmHg 66%
    01:00 +20°C° 0 mm 1 m/s 754 mmHg 69%
    02:00 +19°C° 0 mm 1 m/s 754 mmHg 72%
    03:00 +19°C° 0 mm 1 m/s 754 mmHg 74%
    04:00 +19°C° 0 mm 1 m/s 754 mmHg 76%
    05:00 +18°C° 0 mm 2 m/s 754 mmHg 78%
    06:00 +18°C° 0 mm 2 m/s 755 mmHg 79%
    07:00 +19°C° 0 mm 2 m/s 755 mmHg 73%
    08:00 +21°C° 0 mm 2 m/s 755 mmHg 67%
    09:00 +24°C° 0 mm 2 m/s 755 mmHg 61%
    10:00 +26°C° 0 mm 2 m/s 756 mmHg 56%
    11:00 +27°C° 0 mm 2 m/s 756 mmHg 50%
    12:00 +29°C° 0 mm 3 m/s 756 mmHg 45%
    13:00 +29°C° 0 mm 3 m/s 756 mmHg 44%
    14:00 +29°C° 0 mm 3 m/s 755 mmHg 43%
    15:00 +29°C° 0 mm 3 m/s 755 mmHg 41%
    16:00 +27°C° 0 mm 3 m/s 755 mmHg 46%
    17:00 +26°C° 0 mm 3 m/s 756 mmHg 51%
    18:00 +24°C° 0 mm 3 m/s 756 mmHg 55%
    19:00 +22°C° 0 mm 3 m/s 756 mmHg 61%
    20:00 +20°C° 0 mm 3 m/s 756 mmHg 67%
    21:00 +19°C° 0 mm 3 m/s 757 mmHg 73%
    22:00 +18°C° 0 mm 2 m/s 757 mmHg 75%
    23:00 +18°C° 0 mm 2 m/s 757 mmHg 77%
    Arată mai mult